Change the Weather History Date:

Wednesday, April 30, 2014

  Actual Average (KISQ) Record (KISQ)
Temperature  
Mean Temperature 44 °F -  
Max Temperature 55 °F 53 °F 72 °F (1952)
Min Temperature 35 °F 33 °F 22 °F (1956)
Degree Days  
Heating Degree Days 20    
Moisture  
Dew Point 43 °F    
Average Humidity 86    
Maximum Humidity 93    
Minimum Humidity 69    
Precipitation  
Precipitation 0.07 in - - ()
Sea Level Pressure  
Sea Level Pressure 29.74 in    
Wind  
Wind Speed 4 mph (South)    
Max Wind Speed 10 mph    
Max Gust Speed -    
Averages and records for this station are not official NWS values.
T = Trace of Precipitation, MM = Missing Value Source: NWS Daily Summary

Daily Weather History Graph

Daily Weather History Graph

Search for Another Location

Airport or City:

Trip Planner

Search our weather history database for the weather conditions in past years. The results will help you decide how hot, cold, wet, or windy it might be!

Date:

Astronomy

Apr. 30, 2014 Rise Set
Actual Time 6:34 AM EDT 8:54 PM EDT
Civil Twilight 6:00 AM EDT 9:27 PM EDT
Nautical Twilight 5:19 AM EDT 10:09 PM EDT
Astronomical Twilight 4:32 AM EDT 10:56 PM EDT
Moon 7:33 AM EDT (4/30) 10:35 PM EDT (4/30)
Length of Visible Light 15h 27m
Length of Day
14h 20m
New Moon, 2% of the Moon is Illuminated
Apr 30
New Moon
May 6
First Quarter
May 14
Full
May 21
Last Quarter
May 28
New

Hourly Weather History & Observations

Time (EDT) Temp. Windchill Dew Point Humidity Pressure Visibility Wind Dir Wind Speed Gust Speed Precip Events Conditions
12:56 AM 36.0 °F 33.3 °F 33.1 °F 89% 29.75 in - NW 3.5 mph - N/A   Unknown
1:56 AM 35.1 °F 32.2 °F 33.1 °F 92% 29.75 in - NW 3.5 mph - N/A   Unknown
2:56 AM 37.0 °F - 35.1 °F 93% 29.75 in - Calm Calm - N/A   Unknown
3:56 AM 44.1 °F 42.5 °F 41.0 °F 89% 29.73 in - SSW 3.5 mph - 0.02 in   Unknown
4:56 AM 44.1 °F - 41.0 °F 89% 29.73 in - Calm Calm - N/A   Unknown
5:56 AM 44.1 °F 42.5 °F 42.1 °F 93% 29.74 in - SSW 3.5 mph - N/A   Unknown
6:56 AM 45.0 °F 43.5 °F 42.1 °F 90% 29.76 in - ESE 3.5 mph - N/A   Unknown
7:56 AM 46.0 °F - 43.0 °F 89% 29.75 in - Calm Calm - N/A   Unknown
8:56 AM 43.0 °F - 41.0 °F 93% 29.76 in - Calm Calm - N/A   Unknown
9:56 AM 46.0 °F - 44.1 °F 93% 29.75 in - Calm Calm - 0.01 in   Unknown
10:56 AM 44.1 °F - 41.0 °F 89% 29.75 in - Calm Calm - 0.04 in   Unknown
11:56 AM 48.9 °F - 45.0 °F 86% 29.75 in - SE 6.9 mph - N/A   Unknown
12:56 PM 48.9 °F - 45.0 °F 86% 29.75 in - SE 6.9 mph - N/A   Unknown
1:56 PM 50.0 °F - 46.0 °F 86% 29.74 in - SSE 6.9 mph - N/A   Unknown
2:56 PM 50.0 °F - 46.0 °F 86% 29.75 in - SSE 6.9 mph - N/A   Unknown
3:56 PM 51.1 °F - 46.9 °F 86% 29.74 in - South 5.8 mph - N/A   Unknown
4:56 PM 54.0 °F - 46.9 °F 77% 29.74 in - South 8.1 mph - N/A   Unknown
5:56 PM 54.0 °F - 46.0 °F 75% 29.74 in - SSE 10.4 mph - N/A   Unknown
6:56 PM 54.0 °F - 44.1 °F 69% 29.73 in - South 6.9 mph - N/A   Unknown
7:56 PM 53.1 °F - 45.0 °F 74% 29.73 in - SSE 3.5 mph - N/A   Unknown
8:56 PM 51.1 °F - 46.0 °F 83% 29.74 in - SSE 8.1 mph - N/A   Unknown
9:56 PM 48.0 °F - 44.1 °F 86% 29.75 in - South 3.5 mph - N/A   Unknown
10:56 PM 48.0 °F - 44.1 °F 86% 29.74 in - South 3.5 mph - N/A   Unknown
11:56 PM 46.9 °F - 44.1 °F 90% 29.73 in - Variable 3.5 mph - N/A   Unknown